Time,TemperatureF,DewpointF,PressureIn,WindDirection,WindDirectionDegrees,WindSpeedMPH,WindSpeedGustMPH,Humidity,HourlyPrecipIn,Conditions,Clouds,dailyrainin,SoftwareType,DateUTC
2013-08-17 00:01:00,59.5,58.4,30.19,NE,43,0.0,5.0,96,0.00,,,0.00,Wunderground v.1.15,2013-08-17 04:01:00,
2013-08-17 00:02:00,59.5,58.4,30.19,NE,43,0.0,5.0,96,0.00,,,0.00,Wunderground v.1.15,2013-08-17 04:02:00,
2013-08-17 00:05:00,59.4,58.3,30.19,NE,43,0.0,5.0,96,0.00,,,0.00,Wunderground v.1.15,2013-08-17 04:05:00,
2013-08-17 00:06:00,59.4,58.3,30.19,NE,43,0.0,5.0,96,0.00,,,0.00,Wunderground v.1.15,2013-08-17 04:06:00,
2013-08-17 00:10:00,59.3,58.2,30.19,NE,43,0.0,5.0,96,0.00,,,0.00,Wunderground v.1.15,2013-08-17 04:10:00,
2013-08-17 00:15:00,59.3,58.2,30.19,NE,43,0.0,5.0,96,0.00,,,0.00,Wunderground v.1.15,2013-08-17 04:15:00,
2013-08-17 00:21:00,59.1,58.0,30.19,NE,42,0.0,5.0,96,0.00,,,0.00,Wunderground v.1.15,2013-08-17 04:21:00,
2013-08-17 00:27:00,59.0,58.2,30.20,NE,43,0.0,5.0,97,0.00,,,0.00,Wunderground v.1.15,2013-08-17 04:27:00,
2013-08-17 00:33:00,59.2,58.3,30.19,NE,42,0.0,5.0,97,0.00,,,0.00,Wunderground v.1.15,2013-08-17 04:33:00,
2013-08-17 00:39:00,59.1,58.2,30.20,NE,42,0.0,5.0,97,0.00,,,0.00,Wunderground v.1.15,2013-08-17 04:39:00,
2013-08-17 00:45:00,59.1,58.2,30.20,NE,43,0.0,5.0,97,0.00,,,0.00,Wunderground v.1.15,2013-08-17 04:45:00,
2013-08-17 00:51:00,58.8,58.0,30.20,NE,42,0.0,5.0,97,0.00,,,0.00,Wunderground v.1.15,2013-08-17 04:51:00,
2013-08-17 00:57:00,58.5,57.7,30.20,NE,43,0.0,5.0,97,0.00,,,0.00,Wunderground v.1.15,2013-08-17 04:57:00,
2013-08-17 01:03:00,58.1,57.3,30.20,NE,43,0.0,5.0,97,0.00,,,0.00,Wunderground v.1.15,2013-08-17 05:03:00,
2013-08-17 01:09:00,58.2,57.4,30.20,NE,43,0.0,5.0,97,0.00,,,0.00,Wunderground v.1.15,2013-08-17 05:09:00,
2013-08-17 01:15:00,58.2,57.4,30.20,NE,42,0.0,5.0,97,0.00,,,0.00,Wunderground v.1.15,2013-08-17 05:15:00,
2013-08-17 01:20:00,57.7,56.9,30.20,NE,43,0.0,5.0,97,0.00,,,0.00,Wunderground v.1.15,2013-08-17 05:20:00,
2013-08-17 01:26:00,57.8,57.0,30.20,NE,43,0.0,5.0,97,0.00,,,0.00,Wunderground v.1.15,2013-08-17 05:26:00,
2013-08-17 01:32:00,57.5,56.7,30.20,NE,43,0.0,5.0,97,0.00,,,0.00,Wunderground v.1.15,2013-08-17 05:32:00,
2013-08-17 01:38:00,57.4,56.6,30.20,NE,42,0.0,5.0,97,0.00,,,0.00,Wunderground v.1.15,2013-08-17 05:38:00,
2013-08-17 01:44:00,57.3,56.5,30.20,NE,42,0.0,5.0,97,0.00,,,0.00,Wunderground v.1.15,2013-08-17 05:44:00,
2013-08-17 01:50:00,57.2,56.4,30.20,NE,43,0.0,5.0,97,0.00,,,0.00,Wunderground v.1.15,2013-08-17 05:50:00,
2013-08-17 01:56:00,57.0,56.2,30.19,NE,43,0.0,5.0,97,0.00,,,0.00,Wunderground v.1.15,2013-08-17 05:56:00,
2013-08-17 02:02:00,56.9,56.1,30.19,NE,43,0.0,5.0,97,0.00,,,0.00,Wunderground v.1.15,2013-08-17 06:02:00,
2013-08-17 02:08:00,56.5,55.7,30.19,NE,43,0.0,5.0,97,0.00,,,0.00,Wunderground v.1.15,2013-08-17 06:08:00,
2013-08-17 02:14:00,56.5,55.9,30.19,NE,42,0.0,5.0,98,0.00,,,0.00,Wunderground v.1.15,2013-08-17 06:14:00,
2013-08-17 02:19:00,56.6,56.0,30.20,NE,43,0.0,5.0,98,0.00,,,0.00,Wunderground v.1.15,2013-08-17 06:19:00,
2013-08-17 02:25:00,56.6,56.0,30.20,NE,43,0.0,5.0,98,0.00,,,0.00,Wunderground v.1.15,2013-08-17 06:25:00,
2013-08-17 02:31:00,56.3,55.5,30.20,NE,43,0.0,5.0,97,0.00,,,0.00,Wunderground v.1.15,2013-08-17 06:31:00,
2013-08-17 02:37:00,56.3,55.5,30.20,NE,43,0.0,5.0,97,0.00,,,0.00,Wunderground v.1.15,2013-08-17 06:37:00,
2013-08-17 02:43:00,56.5,55.9,30.20,NE,43,0.0,5.0,98,0.00,,,0.00,Wunderground v.1.15,2013-08-17 06:43:00,
2013-08-17 02:49:00,56.6,56.0,30.20,NE,42,0.0,5.0,98,0.00,,,0.00,Wunderground v.1.15,2013-08-17 06:49:00,
2013-08-17 02:55:00,56.6,56.0,30.20,NE,43,0.0,5.0,98,0.00,,,0.00,Wunderground v.1.15,2013-08-17 06:55:00,
2013-08-17 03:01:00,56.4,55.8,30.20,NE,43,0.0,5.0,98,0.00,,,0.00,Wunderground v.1.15,2013-08-17 07:01:00,
2013-08-17 03:06:00,56.1,55.5,30.20,NE,42,0.0,5.0,98,0.00,,,0.00,Wunderground v.1.15,2013-08-17 07:06:00,
2013-08-17 03:11:00,55.7,54.9,30.20,NE,43,0.0,5.0,97,0.00,,,0.00,Wunderground v.1.15,2013-08-17 07:11:00,
2013-08-17 03:17:00,55.6,55.0,30.20,NE,43,0.0,5.0,98,0.00,,,0.00,Wunderground v.1.15,2013-08-17 07:17:00,
2013-08-17 03:22:00,55.6,55.0,30.20,NE,43,0.0,5.0,98,0.00,,,0.00,Wunderground v.1.15,2013-08-17 07:22:00,
2013-08-17 03:28:00,55.7,55.1,30.20,NE,43,0.0,5.0,98,0.00,,,0.00,Wunderground v.1.15,2013-08-17 07:28:00,
2013-08-17 03:34:00,55.7,55.1,30.20,NE,42,0.0,5.0,98,0.00,,,0.00,Wunderground v.1.15,2013-08-17 07:34:00,
2013-08-17 03:40:00,55.3,54.5,30.20,NE,43,0.0,5.0,97,0.00,,,0.00,Wunderground v.1.15,2013-08-17 07:40:00,
2013-08-17 03:46:00,55.1,54.5,30.20,NE,42,0.0,5.0,98,0.00,,,0.00,Wunderground v.1.15,2013-08-17 07:46:00,
2013-08-17 03:52:00,55.1,54.5,30.20,NE,43,0.0,5.0,98,0.00,,,0.00,Wunderground v.1.15,2013-08-17 07:52:00,
2013-08-17 03:58:00,55.1,54.5,30.20,NE,43,0.0,5.0,98,0.00,,,0.00,Wunderground v.1.15,2013-08-17 07:58:00,
2013-08-17 04:04:00,55.1,54.5,30.20,NE,43,0.0,5.0,98,0.00,,,0.00,Wunderground v.1.15,2013-08-17 08:04:00,
2013-08-17 04:09:00,55.2,54.6,30.20,NE,37,0.0,5.0,98,0.00,,,0.00,Wunderground v.1.15,2013-08-17 08:09:00,
2013-08-17 04:15:00,55.3,54.7,30.20,NE,37,0.0,5.0,98,0.00,,,0.00,Wunderground v.1.15,2013-08-17 08:15:00,
2013-08-17 04:21:00,55.4,54.8,30.20,NE,37,0.0,5.0,98,0.00,,,0.00,Wunderground v.1.15,2013-08-17 08:21:00,
2013-08-17 04:27:00,55.8,55.2,30.20,NE,46,0.0,5.0,98,0.00,,,0.00,Wunderground v.1.15,2013-08-17 08:27:00,
2013-08-17 04:33:00,56.1,55.5,30.20,NE,46,0.0,5.0,98,0.00,,,0.00,Wunderground v.1.15,2013-08-17 08:33:00,
2013-08-17 04:39:00,56.4,55.8,30.20,NNE,25,0.0,5.0,98,0.00,,,0.00,Wunderground v.1.15,2013-08-17 08:39:00,
2013-08-17 04:45:00,56.3,55.2,30.20,NNE,25,0.0,5.0,96,0.00,,,0.00,Wunderground v.1.15,2013-08-17 08:45:00,
2013-08-17 04:50:00,56.1,55.0,30.20,NNE,26,0.0,5.0,96,0.00,,,0.00,Wunderground v.1.15,2013-08-17 08:50:00,
2013-08-17 04:56:00,56.0,54.6,30.20,East,88,0.0,5.0,95,0.00,,,0.00,Wunderground v.1.15,2013-08-17 08:56:00,
2013-08-17 05:01:00,55.9,54.5,30.20,ENE,61,0.0,5.0,95,0.00,,,0.00,Wunderground v.1.15,2013-08-17 09:01:00,
2013-08-17 05:06:00,55.7,54.0,30.20,ENE,60,0.0,5.0,94,0.00,,,0.00,Wunderground v.1.15,2013-08-17 09:06:00,
2013-08-17 05:12:00,55.5,53.8,30.20,ENE,70,0.0,5.0,94,0.00,,,0.00,Wunderground v.1.15,2013-08-17 09:12:00,
2013-08-17 05:18:00,55.6,54.2,30.20,ENE,68,0.0,5.0,95,0.00,,,0.00,Wunderground v.1.15,2013-08-17 09:18:00,
2013-08-17 05:24:00,56.2,54.5,30.20,NE,52,0.0,5.0,94,0.00,,,0.00,Wunderground v.1.15,2013-08-17 09:24:00,
2013-08-17 05:30:00,56.3,54.3,30.20,North,1,0.0,5.0,93,0.00,,,0.00,Wunderground v.1.15,2013-08-17 09:30:00,
2013-08-17 05:35:00,56.7,54.7,30.20,NNE,13,1.0,5.0,93,0.00,,,0.00,Wunderground v.1.15,2013-08-17 09:35:00,
2013-08-17 05:41:00,57.0,54.7,30.20,NE,43,1.0,5.0,92,0.00,,,0.00,Wunderground v.1.15,2013-08-17 09:41:00,
2013-08-17 05:47:00,57.1,54.5,30.20,NE,38,1.0,5.0,91,0.00,,,0.00,Wunderground v.1.15,2013-08-17 09:47:00,
2013-08-17 05:53:00,56.9,54.0,30.21,North,6,1.0,5.0,90,0.00,,,0.00,Wunderground v.1.15,2013-08-17 09:53:00,
2013-08-17 05:59:00,57.0,54.1,30.21,NE,40,1.0,5.0,90,0.00,,,0.00,Wunderground v.1.15,2013-08-17 09:59:00,
2013-08-17 06:05:00,57.1,54.2,30.21,North,11,1.0,5.0,90,0.00,,,0.00,Wunderground v.1.15,2013-08-17 10:05:00,
2013-08-17 06:11:00,57.0,54.1,30.21,NNW,330,1.0,5.0,90,0.00,,,0.00,Wunderground v.1.15,2013-08-17 10:11:00,
2013-08-17 06:16:00,57.1,54.2,30.21,NE,44,1.0,5.0,90,0.00,,,0.00,Wunderground v.1.15,2013-08-17 10:16:00,
2013-08-17 06:22:00,57.3,54.4,30.21,NNE,18,1.0,5.0,90,0.00,,,0.00,Wunderground v.1.15,2013-08-17 10:22:00,
2013-08-17 06:28:00,57.2,54.3,30.21,North,10,2.0,5.0,90,0.00,,,0.00,Wunderground v.1.15,2013-08-17 10:28:00,
2013-08-17 06:34:00,57.2,54.0,30.21,NNE,21,3.0,5.0,89,0.00,,,0.00,Wunderground v.1.15,2013-08-17 10:34:00,
2013-08-17 06:40:00,57.3,54.1,30.21,NNE,20,3.0,5.0,89,0.00,,,0.00,Wunderground v.1.15,2013-08-17 10:40:00,
2013-08-17 06:46:00,57.5,54.3,30.21,NE,51,3.0,5.0,89,0.00,,,0.00,Wunderground v.1.15,2013-08-17 10:46:00,
2013-08-17 06:52:00,57.9,54.4,30.22,North,350,4.0,5.0,88,0.00,,,0.00,Wunderground v.1.15,2013-08-17 10:52:00,
2013-08-17 06:58:00,58.0,54.2,30.22,NE,43,4.0,5.0,87,0.00,,,0.00,Wunderground v.1.15,2013-08-17 10:58:00,
2013-08-17 07:03:00,58.2,54.3,30.22,NE,48,4.0,5.0,87,0.00,,,0.00,Wunderground v.1.15,2013-08-17 11:03:00,
2013-08-17 07:09:00,58.2,54.0,30.22,NE,40,3.0,5.0,86,0.00,,,0.00,Wunderground v.1.15,2013-08-17 11:09:00,
2013-08-17 07:14:00,58.3,54.1,30.22,NE,48,3.0,5.0,86,0.00,,,0.00,Wunderground v.1.15,2013-08-17 11:14:00,
2013-08-17 07:20:00,58.2,54.0,30.22,NNE,32,3.0,5.0,86,0.00,,,0.00,Wunderground v.1.15,2013-08-17 11:20:00,
2013-08-17 07:26:00,58.2,54.0,30.22,NE,44,2.0,5.0,86,0.00,,,0.00,Wunderground v.1.15,2013-08-17 11:26:00,
2013-08-17 07:32:00,58.3,54.1,30.23,ENE,63,2.0,5.0,86,0.00,,,0.00,Wunderground v.1.15,2013-08-17 11:32:00,
2013-08-17 07:38:00,58.5,54.3,30.23,NNE,23,3.0,5.0,86,0.00,,,0.00,Wunderground v.1.15,2013-08-17 11:38:00,
2013-08-17 07:44:00,58.8,54.6,30.23,NE,55,3.0,8.0,86,0.00,,,0.00,Wunderground v.1.15,2013-08-17 11:44:00,
2013-08-17 07:49:00,58.9,54.4,30.23,North,10,3.0,8.0,85,0.00,,,0.00,Wunderground v.1.15,2013-08-17 11:49:00,
2013-08-17 07:55:00,58.8,54.6,30.23,NNE,13,3.0,5.0,86,0.00,,,0.00,Wunderground v.1.15,2013-08-17 11:55:00,
2013-08-17 08:01:00,58.7,54.8,30.23,NNE,22,4.0,5.0,87,0.00,,,0.00,Wunderground v.1.15,2013-08-17 12:01:00,
2013-08-17 08:06:00,58.6,54.4,30.22,North,360,4.0,5.0,86,0.00,,,0.00,Wunderground v.1.15,2013-08-17 12:06:00,
2013-08-17 08:07:00,58.7,54.5,30.22,NE,46,4.0,5.0,86,0.00,,,0.00,Wunderground v.1.15,2013-08-17 12:07:00,
2013-08-17 08:13:00,58.8,54.6,30.23,NE,44,4.0,6.0,86,0.00,,,0.00,Wunderground v.1.15,2013-08-17 12:13:00,
2013-08-17 08:18:00,58.9,54.7,30.22,NE,41,4.0,6.0,86,0.00,,,0.00,Wunderground v.1.15,2013-08-17 12:18:00,
2013-08-17 08:24:00,58.9,55.0,30.23,NNE,12,3.0,5.0,87,0.00,,,0.00,Wunderground v.1.15,2013-08-17 12:24:00,
2013-08-17 08:30:00,58.8,54.9,30.23,NNE,27,3.0,3.0,87,0.00,,,0.00,Wunderground v.1.15,2013-08-17 12:30:00,
2013-08-17 08:36:00,59.1,55.2,30.23,NE,56,3.0,5.0,87,0.00,,,0.00,Wunderground v.1.15,2013-08-17 12:36:00,
2013-08-17 08:42:00,59.3,55.4,30.23,North,360,3.0,5.0,87,0.00,,,0.00,Wunderground v.1.15,2013-08-17 12:42:00,
2013-08-17 08:48:00,59.5,55.9,30.23,NNE,20,4.0,6.0,88,0.00,,,0.00,Wunderground v.1.15,2013-08-17 12:48:00,
2013-08-17 08:54:00,59.7,56.1,30.23,NNE,23,4.0,5.0,88,0.00,,,0.00,Wunderground v.1.15,2013-08-17 12:54:00,
2013-08-17 09:01:00,59.9,56.3,30.23,NE,36,4.0,5.0,88,0.00,,,0.00,Wunderground v.1.15,2013-08-17 13:01:00,
2013-08-17 09:06:00,60.1,56.2,30.23,North,352,4.0,5.0,87,0.00,,,0.00,Wunderground v.1.15,2013-08-17 13:06:00,
2013-08-17 09:12:00,60.5,56.3,30.23,North,10,4.0,5.0,86,0.00,,,0.00,Wunderground v.1.15,2013-08-17 13:12:00,
2013-08-17 09:18:00,60.9,57.0,30.24,NNE,15,4.0,5.0,87,0.00,,,0.00,Wunderground v.1.15,2013-08-17 13:18:00,
2013-08-17 09:24:00,61.4,56.8,30.24,NE,45,3.0,5.0,85,0.00,,,0.00,Wunderground v.1.15,2013-08-17 13:24:00,
2013-08-17 09:30:00,61.9,57.0,30.24,NE,41,3.0,6.0,84,0.00,,,0.00,Wunderground v.1.15,2013-08-17 13:30:00,
2013-08-17 09:36:00,62.4,57.5,30.24,NE,38,3.0,5.0,84,0.00,,,0.00,Wunderground v.1.15,2013-08-17 13:36:00,
2013-08-17 09:42:00,63.1,57.9,30.24,NE,45,3.0,5.0,83,0.00,,,0.00,Wunderground v.1.15,2013-08-17 13:42:00,
2013-08-17 09:47:00,63.6,58.0,30.24,NNE,33,4.0,5.0,82,0.00,,,0.00,Wunderground v.1.15,2013-08-17 13:47:00,
2013-08-17 09:53:00,64.0,58.1,30.24,NNE,27,4.0,7.0,81,0.00,,,0.00,Wunderground v.1.15,2013-08-17 13:53:00,
2013-08-17 09:59:00,64.4,58.1,30.24,NE,44,4.0,7.0,80,0.00,,,0.00,Wunderground v.1.15,2013-08-17 13:59:00,
2013-08-17 10:05:00,64.8,58.5,30.24,North,6,4.0,7.0,80,0.00,,,0.00,Wunderground v.1.15,2013-08-17 14:05:00,
2013-08-17 10:11:00,65.1,58.8,30.24,NE,49,4.0,4.0,80,0.00,,,0.00,Wunderground v.1.15,2013-08-17 14:11:00,
2013-08-17 10:17:00,65.5,59.2,30.24,NE,34,3.0,6.0,80,0.00,,,0.00,Wunderground v.1.15,2013-08-17 14:17:00,
2013-08-17 10:23:00,65.8,58.7,30.24,NE,48,3.0,5.0,78,0.00,,,0.00,Wunderground v.1.15,2013-08-17 14:23:00,
2013-08-17 10:29:00,66.4,59.7,30.24,NE,50,3.0,5.0,79,0.00,,,0.00,Wunderground v.1.15,2013-08-17 14:29:00,
2013-08-17 10:35:00,66.7,59.6,30.24,NE,48,3.0,5.0,78,0.00,,,0.00,Wunderground v.1.15,2013-08-17 14:35:00,
2013-08-17 10:41:00,66.9,59.8,30.24,NNE,20,4.0,4.0,78,0.00,,,0.00,Wunderground v.1.15,2013-08-17 14:41:00,
2013-08-17 10:47:00,67.4,59.6,30.24,NE,43,4.0,7.0,76,0.00,,,0.00,Wunderground v.1.15,2013-08-17 14:47:00,
2013-08-17 10:52:00,67.9,59.3,30.24,NNW,344,5.0,5.0,74,0.00,,,0.00,Wunderground v.1.15,2013-08-17 14:52:00,
2013-08-17 10:57:00,68.5,59.9,30.24,NE,51,4.0,5.0,74,0.00,,,0.00,Wunderground v.1.15,2013-08-17 14:57:00,
2013-08-17 11:03:00,69.2,59.4,30.24,NNE,20,4.0,5.0,71,0.00,,,0.00,Wunderground v.1.15,2013-08-17 15:03:00,
2013-08-17 11:08:00,69.3,59.9,30.24,NE,37,5.0,10.0,72,0.00,,,0.00,Wunderground v.1.15,2013-08-17 15:08:00,
2013-08-17 11:14:00,69.3,59.1,30.24,NNE,24,6.0,7.0,70,0.00,,,0.00,Wunderground v.1.15,2013-08-17 15:14:00,
2013-08-17 11:20:00,70.3,60.1,30.24,West,281,5.0,7.0,70,0.00,,,0.00,Wunderground v.1.15,2013-08-17 15:20:00,
2013-08-17 11:26:00,71.1,60.8,30.24,SE,141,3.0,6.0,70,0.00,,,0.00,Wunderground v.1.15,2013-08-17 15:26:00,
2013-08-17 11:32:00,71.3,59.8,30.24,NE,53,4.0,7.0,67,0.00,,,0.00,Wunderground v.1.15,2013-08-17 15:32:00,
2013-08-17 11:38:00,71.5,60.8,30.23,NNE,30,4.0,7.0,69,0.00,,,0.00,Wunderground v.1.15,2013-08-17 15:38:00,
2013-08-17 11:44:00,71.4,59.9,30.24,NNE,15,4.0,9.0,67,0.00,,,0.00,Wunderground v.1.15,2013-08-17 15:44:00,
2013-08-17 11:50:00,71.8,60.2,30.24,NE,38,5.0,9.0,67,0.00,,,0.00,Wunderground v.1.15,2013-08-17 15:50:00,
2013-08-17 11:56:00,71.8,60.2,30.23,North,354,5.0,8.0,67,0.00,,,0.00,Wunderground v.1.15,2013-08-17 15:56:00,
2013-08-17 12:01:00,71.9,59.9,30.24,NE,41,6.0,6.0,66,0.00,,,0.00,Wunderground v.1.15,2013-08-17 16:01:00,
2013-08-17 12:07:00,72.1,59.2,30.23,NE,43,5.0,8.0,64,0.00,,,0.00,Wunderground v.1.15,2013-08-17 16:07:00,
2013-08-17 12:13:00,72.1,59.2,30.23,East,91,6.0,10.0,64,0.00,,,0.00,Wunderground v.1.15,2013-08-17 16:13:00,
2013-08-17 12:19:00,72.2,59.3,30.23,NE,55,6.0,10.0,64,0.00,,,0.00,Wunderground v.1.15,2013-08-17 16:19:00,
2013-08-17 12:25:00,72.5,60.5,30.23,NW,313,5.0,6.0,66,0.00,,,0.00,Wunderground v.1.15,2013-08-17 16:25:00,
2013-08-17 12:30:00,73.3,59.9,30.23,NE,44,4.0,9.0,63,0.00,,,0.00,Wunderground v.1.15,2013-08-17 16:30:00,
2013-08-17 12:35:00,73.0,60.5,30.23,NNW,327,4.0,9.0,65,0.00,,,0.00,Wunderground v.1.15,2013-08-17 16:35:00,
2013-08-17 12:41:00,73.8,60.4,30.23,NE,44,4.0,5.0,63,0.00,,,0.00,Wunderground v.1.15,2013-08-17 16:41:00,
2013-08-17 12:47:00,74.0,58.8,30.23,South,183,4.0,8.0,59,0.00,,,0.00,Wunderground v.1.15,2013-08-17 16:47:00,
2013-08-17 12:53:00,74.8,60.0,30.22,SW,229,4.0,6.0,60,0.00,,,0.00,Wunderground v.1.15,2013-08-17 16:53:00,
2013-08-17 12:58:00,74.2,59.4,30.23,West,274,5.0,8.0,60,0.00,,,0.00,Wunderground v.1.15,2013-08-17 16:58:00,
2013-08-17 13:04:00,74.3,59.0,30.22,SE,125,5.0,5.0,59,0.00,,,0.00,Wunderground v.1.15,2013-08-17 17:04:00,
2013-08-17 13:09:00,74.8,59.0,30.22,NNE,15,5.0,10.0,58,0.00,,,0.00,Wunderground v.1.15,2013-08-17 17:09:00,
2013-08-17 13:15:00,75.3,59.0,30.22,ENE,67,4.0,6.0,57,0.00,,,0.00,Wunderground v.1.15,2013-08-17 17:15:00,
2013-08-17 13:21:00,74.8,59.5,30.22,NE,50,5.0,7.0,59,0.00,,,0.00,Wunderground v.1.15,2013-08-17 17:21:00,
2013-08-17 13:27:00,74.9,59.1,30.22,ESE,103,5.0,9.0,58,0.00,,,0.00,Wunderground v.1.15,2013-08-17 17:27:00,
2013-08-17 13:33:00,75.4,58.6,30.22,SSW,211,5.0,9.0,56,0.00,,,0.00,Wunderground v.1.15,2013-08-17 17:33:00,
2013-08-17 13:38:00,75.6,59.3,30.22,NNW,345,5.0,9.0,57,0.00,,,0.00,Wunderground v.1.15,2013-08-17 17:38:00,
2013-08-17 13:44:00,75.2,58.9,30.22,NNW,335,4.0,5.0,57,0.00,,,0.00,Wunderground v.1.15,2013-08-17 17:44:00,
2013-08-17 13:50:00,74.8,59.0,30.21,SSW,203,5.0,5.0,58,0.00,,,0.00,Wunderground v.1.15,2013-08-17 17:50:00,
2013-08-17 13:56:00,75.1,59.3,30.21,NE,47,5.0,7.0,58,0.00,,,0.00,Wunderground v.1.15,2013-08-17 17:56:00,
2013-08-17 14:02:00,76.1,60.7,30.21,NNW,339,3.0,5.0,59,0.00,,,0.00,Wunderground v.1.15,2013-08-17 18:02:00,
2013-08-17 14:08:00,75.6,60.7,30.21,North,3,4.0,7.0,60,0.00,,,0.00,Wunderground v.1.15,2013-08-17 18:08:00,
2013-08-17 14:14:00,75.4,59.1,30.21,NNW,342,5.0,6.0,57,0.00,,,0.00,Wunderground v.1.15,2013-08-17 18:14:00,
2013-08-17 14:19:00,75.5,59.7,30.21,NE,38,5.0,9.0,58,0.00,,,0.00,Wunderground v.1.15,2013-08-17 18:19:00,
2013-08-17 14:25:00,76.0,61.6,30.20,North,10,4.0,8.0,61,0.00,,,0.00,Wunderground v.1.15,2013-08-17 18:25:00,
2013-08-17 14:31:00,75.6,60.7,30.20,NE,53,5.0,8.0,60,0.00,,,0.00,Wunderground v.1.15,2013-08-17 18:31:00,
2013-08-17 14:37:00,76.1,61.7,30.20,NNE,18,5.0,10.0,61,0.00,,,0.00,Wunderground v.1.15,2013-08-17 18:37:00,
2013-08-17 14:43:00,76.1,61.2,30.20,NE,48,4.0,5.0,60,0.00,,,0.00,Wunderground v.1.15,2013-08-17 18:43:00,
2013-08-17 14:49:00,75.8,59.0,30.20,North,8,5.0,10.0,56,0.00,,,0.00,Wunderground v.1.15,2013-08-17 18:49:00,
2013-08-17 14:55:00,75.8,60.0,30.20,NNW,338,5.0,6.0,58,0.00,,,0.00,Wunderground v.1.15,2013-08-17 18:55:00,
2013-08-17 15:01:00,76.3,60.4,30.19,West,270,4.0,4.0,58,0.00,,,0.00,Wunderground v.1.15,2013-08-17 19:01:00,
2013-08-17 15:06:00,76.6,58.7,30.19,NE,49,5.0,8.0,54,0.00,,,0.00,Wunderground v.1.15,2013-08-17 19:06:00,
2013-08-17 15:11:00,76.3,59.4,30.19,NE,38,4.0,5.0,56,0.00,,,0.00,Wunderground v.1.15,2013-08-17 19:11:00,
2013-08-17 15:17:00,77.0,61.1,30.19,ENE,63,4.0,5.0,58,0.00,,,0.00,Wunderground v.1.15,2013-08-17 19:17:00,
2013-08-17 15:23:00,76.3,59.4,30.19,NNE,16,5.0,14.0,56,0.00,,,0.00,Wunderground v.1.15,2013-08-17 19:23:00,
2013-08-17 15:29:00,76.5,59.6,30.19,NE,40,5.0,14.0,56,0.00,,,0.00,Wunderground v.1.15,2013-08-17 19:29:00,
2013-08-17 15:35:00,76.7,60.8,30.18,NE,49,5.0,8.0,58,0.00,,,0.00,Wunderground v.1.15,2013-08-17 19:35:00,
2013-08-17 15:41:00,76.6,59.7,30.18,ESE,117,5.0,5.0,56,0.00,,,0.00,Wunderground v.1.15,2013-08-17 19:41:00,
2013-08-17 15:47:00,77.2,59.8,30.18,NNW,347,4.0,6.0,55,0.00,,,0.00,Wunderground v.1.15,2013-08-17 19:47:00,
2013-08-17 15:53:00,77.3,60.9,30.17,NNE,23,4.0,6.0,57,0.00,,,0.00,Wunderground v.1.15,2013-08-17 19:53:00,
2013-08-17 15:59:00,76.5,59.1,30.18,North,354,5.0,6.0,55,0.00,,,0.00,Wunderground v.1.15,2013-08-17 19:59:00,
2013-08-17 16:05:00,76.7,60.3,30.17,North,355,5.0,9.0,57,0.00,,,0.00,Wunderground v.1.15,2013-08-17 20:05:00,
2013-08-17 16:11:00,76.6,60.2,30.17,NNE,27,6.0,9.0,57,0.00,,,0.00,Wunderground v.1.15,2013-08-17 20:11:00,
2013-08-17 16:16:00,76.5,60.6,30.17,SE,135,5.0,9.0,58,0.00,,,0.00,Wunderground v.1.15,2013-08-17 20:16:00,
2013-08-17 16:22:00,77.5,60.1,30.17,NNW,327,3.0,5.0,55,0.00,,,0.00,Wunderground v.1.15,2013-08-17 20:22:00,
2013-08-17 16:27:00,77.4,60.5,30.17,ENE,57,3.0,7.0,56,0.00,,,0.00,Wunderground v.1.15,2013-08-17 20:27:00,
2013-08-17 16:33:00,76.2,60.3,30.17,ENE,61,5.0,5.0,58,0.00,,,0.00,Wunderground v.1.15,2013-08-17 20:33:00,
2013-08-17 16:38:00,76.1,60.2,30.17,SW,222,5.0,6.0,58,0.00,,,0.00,Wunderground v.1.15,2013-08-17 20:38:00,
2013-08-17 16:44:00,76.0,59.7,30.17,ENE,67,3.0,5.0,57,0.00,,,0.00,Wunderground v.1.15,2013-08-17 20:44:00,
2013-08-17 16:49:00,76.0,59.7,30.17,NE,53,2.0,5.0,57,0.00,,,0.00,Wunderground v.1.15,2013-08-17 20:49:00,
2013-08-17 16:55:00,76.0,60.6,30.17,NNE,30,3.0,6.0,59,0.00,,,0.00,Wunderground v.1.15,2013-08-17 20:55:00,
2013-08-17 17:01:00,75.3,60.5,30.17,North,3,5.0,6.0,60,0.00,,,0.00,Wunderground v.1.15,2013-08-17 21:01:00,
2013-08-17 17:06:00,75.1,60.3,30.17,ENE,60,4.0,6.0,60,0.00,,,0.00,Wunderground v.1.15,2013-08-17 21:06:00,
2013-08-17 17:11:00,74.9,60.5,30.17,NE,49,3.0,5.0,61,0.00,,,0.00,Wunderground v.1.15,2013-08-17 21:11:00,
2013-08-17 17:17:00,74.7,61.7,30.17,NE,53,4.0,6.0,64,0.00,,,0.00,Wunderground v.1.15,2013-08-17 21:17:00,
2013-08-17 17:23:00,74.8,61.8,30.17,North,356,4.0,5.0,64,0.00,,,0.00,Wunderground v.1.15,2013-08-17 21:23:00,
2013-08-17 17:29:00,74.6,61.2,30.17,NNE,15,4.0,6.0,63,0.00,,,0.00,Wunderground v.1.15,2013-08-17 21:29:00,
2013-08-17 17:35:00,74.6,61.6,30.17,North,11,4.0,6.0,64,0.00,,,0.00,Wunderground v.1.15,2013-08-17 21:35:00,
2013-08-17 17:41:00,74.4,61.0,30.17,North,359,4.0,5.0,63,0.00,,,0.00,Wunderground v.1.15,2013-08-17 21:41:00,
2013-08-17 17:47:00,74.3,61.3,30.17,North,358,4.0,7.0,64,0.00,,,0.00,Wunderground v.1.15,2013-08-17 21:47:00,
2013-08-17 17:52:00,74.3,61.3,30.17,NNE,18,4.0,6.0,64,0.00,,,0.00,Wunderground v.1.15,2013-08-17 21:52:00,
2013-08-17 17:58:00,74.2,61.2,30.17,NE,42,4.0,7.0,64,0.00,,,0.00,Wunderground v.1.15,2013-08-17 21:58:00,
2013-08-17 18:04:00,74.3,61.8,30.17,NNE,18,2.0,5.0,65,0.00,,,0.00,Wunderground v.1.15,2013-08-17 22:04:00,
2013-08-17 18:10:00,74.2,61.7,30.17,NNE,15,3.0,5.0,65,0.00,,,0.00,Wunderground v.1.15,2013-08-17 22:10:00,
2013-08-17 18:16:00,73.9,61.4,30.17,NE,37,4.0,7.0,65,0.00,,,0.00,Wunderground v.1.15,2013-08-17 22:16:00,
2013-08-17 18:22:00,73.7,61.6,30.17,NNE,26,5.0,6.0,66,0.00,,,0.00,Wunderground v.1.15,2013-08-17 22:22:00,
2013-08-17 18:28:00,73.7,62.1,30.17,NNE,15,4.0,6.0,67,0.00,,,0.00,Wunderground v.1.15,2013-08-17 22:28:00,
2013-08-17 18:34:00,73.6,62.0,30.17,North,5,3.0,5.0,67,0.00,,,0.00,Wunderground v.1.15,2013-08-17 22:34:00,
2013-08-17 18:40:00,73.3,62.1,30.17,NNE,15,3.0,6.0,68,0.00,,,0.00,Wunderground v.1.15,2013-08-17 22:40:00,
2013-08-17 18:46:00,73.0,61.8,30.17,NNE,13,4.0,5.0,68,0.00,,,0.00,Wunderground v.1.15,2013-08-17 22:46:00,
2013-08-17 18:51:00,72.9,62.1,30.17,North,349,3.0,3.0,69,0.00,,,0.00,Wunderground v.1.15,2013-08-17 22:51:00,
2013-08-17 18:56:00,72.8,62.0,30.17,North,357,3.0,5.0,69,0.00,,,0.00,Wunderground v.1.15,2013-08-17 22:56:00,
2013-08-17 19:02:00,72.6,61.8,30.17,North,349,3.0,5.0,69,0.00,,,0.00,Wunderground v.1.15,2013-08-17 23:02:00,
2013-08-17 19:08:00,72.4,62.1,30.17,NNE,22,3.0,5.0,70,0.00,,,0.00,Wunderground v.1.15,2013-08-17 23:08:00,
2013-08-17 19:14:00,72.2,62.3,30.17,North,359,3.0,5.0,71,0.00,,,0.00,Wunderground v.1.15,2013-08-17 23:14:00,
2013-08-17 19:20:00,72.0,62.1,30.16,NNW,344,2.0,5.0,71,0.00,,,0.00,Wunderground v.1.15,2013-08-17 23:20:00,
2013-08-17 19:25:00,71.7,61.4,30.16,NNE,13,2.0,5.0,70,0.00,,,0.00,Wunderground v.1.15,2013-08-17 23:25:00,
2013-08-17 19:31:00,71.5,61.2,30.17,NNE,15,3.0,3.0,70,0.00,,,0.00,Wunderground v.1.15,2013-08-17 23:31:00,
2013-08-17 19:37:00,71.4,61.5,30.16,North,1,2.0,5.0,71,0.00,,,0.00,Wunderground v.1.15,2013-08-17 23:37:00,
2013-08-17 19:43:00,71.3,61.4,30.16,NNE,20,2.0,5.0,71,0.00,,,0.00,Wunderground v.1.15,2013-08-17 23:43:00,
2013-08-17 19:49:00,71.1,62.0,30.16,NNE,18,3.0,5.0,73,0.00,,,0.00,Wunderground v.1.15,2013-08-17 23:49:00,
2013-08-17 19:55:00,70.7,61.6,30.16,NNE,14,3.0,5.0,73,0.00,,,0.00,Wunderground v.1.15,2013-08-17 23:55:00,
2013-08-17 20:00:00,70.5,61.4,30.16,North,10,3.0,5.0,73,0.00,,,0.00,Wunderground v.1.15,2013-08-18 00:00:00,
2013-08-17 20:06:00,70.2,61.5,30.16,NNE,19,3.0,5.0,74,0.00,,,0.00,Wunderground v.1.15,2013-08-18 00:06:00,
2013-08-17 20:11:00,70.1,61.4,30.16,NNE,33,3.0,5.0,74,0.00,,,0.00,Wunderground v.1.15,2013-08-18 00:11:00,
2013-08-17 20:17:00,69.9,61.2,30.16,NNE,18,3.0,5.0,74,0.00,,,0.00,Wunderground v.1.15,2013-08-18 00:17:00,
2013-08-17 20:22:00,69.6,60.9,30.16,NNE,23,3.0,5.0,74,0.00,,,0.00,Wunderground v.1.15,2013-08-18 00:22:00,
2013-08-17 20:28:00,69.2,60.9,30.16,NNE,26,3.0,5.0,75,0.00,,,0.00,Wunderground v.1.15,2013-08-18 00:28:00,
2013-08-17 20:34:00,68.8,60.2,30.16,NNE,18,3.0,5.0,74,0.00,,,0.00,Wunderground v.1.15,2013-08-18 00:34:00,
2013-08-17 20:40:00,68.7,60.1,30.16,North,6,2.0,5.0,74,0.00,,,0.00,Wunderground v.1.15,2013-08-18 00:40:00,
2013-08-17 20:46:00,68.4,60.2,30.16,NNE,20,2.0,5.0,75,0.00,,,0.00,Wunderground v.1.15,2013-08-18 00:46:00,
2013-08-17 20:52:00,68.1,59.9,30.16,North,11,2.0,5.0,75,0.00,,,0.00,Wunderground v.1.15,2013-08-18 00:52:00,
2013-08-17 20:58:00,67.9,59.7,30.17,NNE,15,2.0,5.0,75,0.00,,,0.00,Wunderground v.1.15,2013-08-18 00:58:00,
2013-08-17 21:04:00,67.7,59.5,30.17,NE,41,2.0,5.0,75,0.00,,,0.00,Wunderground v.1.15,2013-08-18 01:04:00,
2013-08-17 21:10:00,67.5,59.7,30.17,NNE,15,2.0,5.0,76,0.00,,,0.00,Wunderground v.1.15,2013-08-18 01:10:00,
2013-08-17 21:15:00,67.3,59.5,30.17,NNE,23,2.0,5.0,76,0.00,,,0.00,Wunderground v.1.15,2013-08-18 01:15:00,
2013-08-17 21:21:00,66.8,59.4,30.16,NNE,22,1.0,5.0,77,0.00,,,0.00,Wunderground v.1.15,2013-08-18 01:21:00,
2013-08-17 21:27:00,66.6,59.5,30.16,NNE,18,2.0,5.0,78,0.00,,,0.00,Wunderground v.1.15,2013-08-18 01:27:00,
2013-08-17 21:33:00,66.5,59.4,30.16,NNE,18,2.0,5.0,78,0.00,,,0.00,Wunderground v.1.15,2013-08-18 01:33:00,
2013-08-17 21:39:00,66.3,59.2,30.17,NNE,20,2.0,5.0,78,0.00,,,0.00,Wunderground v.1.15,2013-08-18 01:39:00,
2013-08-17 21:45:00,66.2,59.1,30.17,NNE,25,2.0,5.0,78,0.00,,,0.00,Wunderground v.1.15,2013-08-18 01:45:00,
2013-08-17 21:50:00,66.1,59.0,30.17,NNE,13,2.0,5.0,78,0.00,,,0.00,Wunderground v.1.15,2013-08-18 01:50:00,
2013-08-17 21:56:00,66.0,58.9,30.16,NE,51,2.0,5.0,78,0.00,,,0.00,Wunderground v.1.15,2013-08-18 01:56:00,
2013-08-17 22:02:00,65.9,58.8,30.16,NE,56,2.0,5.0,78,0.00,,,0.00,Wunderground v.1.15,2013-08-18 02:02:00,
2013-08-17 22:08:00,65.2,58.9,30.17,NNE,19,1.0,5.0,80,0.00,,,0.00,Wunderground v.1.15,2013-08-18 02:08:00,
2013-08-17 22:13:00,64.5,58.5,30.17,NNE,14,1.0,5.0,81,0.00,,,0.00,Wunderground v.1.15,2013-08-18 02:13:00,
2013-08-17 22:19:00,63.9,58.6,30.17,NNE,15,2.0,5.0,83,0.00,,,0.00,Wunderground v.1.15,2013-08-18 02:19:00,
2013-08-17 22:25:00,63.5,58.6,30.17,NNE,15,2.0,5.0,84,0.00,,,0.00,Wunderground v.1.15,2013-08-18 02:25:00,
2013-08-17 22:31:00,63.3,58.4,30.17,NNE,14,1.0,5.0,84,0.00,,,0.00,Wunderground v.1.15,2013-08-18 02:31:00,
2013-08-17 22:37:00,62.7,58.1,30.17,NNE,16,1.0,5.0,85,0.00,,,0.00,Wunderground v.1.15,2013-08-18 02:37:00,
2013-08-17 22:43:00,62.0,57.8,30.17,NNE,15,1.0,5.0,86,0.00,,,0.00,Wunderground v.1.15,2013-08-18 02:43:00,
2013-08-17 22:49:00,61.5,57.3,30.17,NNE,13,2.0,5.0,86,0.00,,,0.00,Wunderground v.1.15,2013-08-18 02:49:00,
2013-08-17 22:55:00,62.0,57.8,30.17,NNE,18,3.0,5.0,86,0.00,,,0.00,Wunderground v.1.15,2013-08-18 02:55:00,
2013-08-17 23:01:00,62.2,57.6,30.17,NNE,20,2.0,5.0,85,0.00,,,0.00,Wunderground v.1.15,2013-08-18 03:01:00,
2013-08-17 23:06:00,61.9,57.3,30.16,NNE,24,2.0,5.0,85,0.00,,,0.00,Wunderground v.1.15,2013-08-18 03:06:00,
2013-08-17 23:12:00,62.5,57.6,30.16,NNE,20,3.0,5.0,84,0.00,,,0.00,Wunderground v.1.15,2013-08-18 03:12:00,
2013-08-17 23:17:00,62.7,57.8,30.16,NNE,18,3.0,5.0,84,0.00,,,0.00,Wunderground v.1.15,2013-08-18 03:17:00,
2013-08-17 23:22:00,63.3,57.7,30.16,NNE,16,4.0,5.0,82,0.00,,,0.00,Wunderground v.1.15,2013-08-18 03:22:00,
2013-08-17 23:28:00,63.0,57.8,30.16,NNE,27,4.0,5.0,83,0.00,,,0.00,Wunderground v.1.15,2013-08-18 03:28:00,
2013-08-17 23:33:00,63.8,57.9,30.16,NNE,20,4.0,5.0,81,0.00,,,0.00,Wunderground v.1.15,2013-08-18 03:33:00,
2013-08-17 23:39:00,64.0,58.1,30.16,NNE,23,4.0,5.0,81,0.00,,,0.00,Wunderground v.1.15,2013-08-18 03:39:00,
2013-08-17 23:45:00,63.4,57.8,30.17,NNE,13,4.0,5.0,82,0.00,,,0.00,Wunderground v.1.15,2013-08-18 03:45:00,
2013-08-17 23:51:00,62.9,57.7,30.17,NNE,15,3.0,5.0,83,0.00,,,0.00,Wunderground v.1.15,2013-08-18 03:51:00,
2013-08-17 23:57:00,62.3,57.4,30.17,NNE,13,3.0,5.0,84,0.00,,,0.00,Wunderground v.1.15,2013-08-18 03:57:00,